Weather History for KUUU - January, 2014

Change the Weather History Date:

Tuesday, January 7, 2014

  Actual Average Record
Temperature  
Mean Temperature 18 °F -  
Max Temperature 28 °F 39 °F 54 °F (1962)
Min Temperature 7 °F 25 °F 5 °F (2015)
Degree Days  
Heating Degree Days 47    
Moisture  
Dew Point -2 °F    
Average Humidity 49    
Maximum Humidity 78    
Minimum Humidity 37    
Precipitation  
Precipitation 0.00 in - - ()
Sea Level Pressure  
Sea Level Pressure 29.93 in    
Wind  
Wind Speed 12 mph (WNW)    
Max Wind Speed 24 mph    
Max Gust Speed 38 mph    
Visibility 9 miles    
Events Snow    
Averages and records for this station are not official NWS values.
T = Trace of Precipitation, MM = Missing Value Source: NWS Daily Summary

Daily Weather History Graph

Daily Weather History Graph

Search for Another Location

Airport or City:

Trip Planner

Search our weather history database for the weather conditions in past years. The results will help you decide how hot, cold, wet, or windy it might be!

Date:

Astronomy

Jan. 07, 2014 Rise Set
Actual Time 7:11 AM EST 4:31 PM EST
Civil Twilight 6:40 AM EST 5:02 PM EST
Nautical Twilight 6:06 AM EST 5:37 PM EST
Astronomical Twilight 5:32 AM EST 6:10 PM EST
Moon 10:53 AM EST (1/7) No Moon Set
Length of Visible Light 10h 21m
Length of Day
9h 19m
Waxing Crescent, 45% of the Moon is Illuminated
Jan 7
Waxing Crescent
Jan 7
First Quarter
Jan 15
Full
Jan 24
Last Quarter
Jan 30
New

Hourly Weather History & Observations

Time (EST) Temp. Windchill Dew Point Humidity Pressure Visibility Wind Dir Wind Speed Gust Speed Precip Events Conditions
12:53 AM 28.9 °F 22.8 °F 17.1 °F 61% 29.55 in 10.0 mi West 5.8 mph - N/A   Overcast
1:53 AM 28.9 °F 25.2 °F 17.1 °F 61% 29.55 in 10.0 mi WSW 3.5 mph - N/A   Scattered Clouds
2:53 AM 28.0 °F 22.8 °F 18.0 °F 66% 29.58 in 10.0 mi Variable 4.6 mph - N/A   Mostly Cloudy
3:30 AM 21.0 °F 5.4 °F 15.1 °F 78% 29.61 in 2.0 mi NW 20.7 mph 33.4 mph 0.00 in Snow Light Snow
3:44 AM 19.9 °F 2.8 °F 12.9 °F 74% 29.63 in 3.0 mi WNW 24.2 mph 32.2 mph 0.00 in Snow Light Snow
3:53 AM 19.9 °F 4.3 °F 10.0 °F 65% 29.65 in 7.0 mi WNW 19.6 mph 36.8 mph 0.00 in Snow Light Snow
4:16 AM 18.0 °F 1.3 °F 6.1 °F 60% 29.66 in 10.0 mi WNW 20.7 mph 29.9 mph 0.00 in   Overcast
4:53 AM 17.1 °F 2.0 °F 3.0 °F 54% 29.70 in 10.0 mi WNW 16.1 mph 27.6 mph 0.00 in   Overcast
5:53 AM 15.1 °F -2.9 °F -0.0 °F 51% 29.75 in 10.0 mi WNW 21.9 mph 38.0 mph N/A   Mostly Cloudy
6:53 AM 12.0 °F -5.1 °F -4.0 °F 49% 29.83 in 10.0 mi WNW 17.3 mph 31.1 mph N/A   Clear
7:53 AM 10.9 °F -8.3 °F -6.0 °F 47% 29.89 in 10.0 mi West 21.9 mph 33.4 mph N/A   Clear
8:53 AM 12.0 °F -3.4 °F -5.1 °F 46% 29.94 in 10.0 mi WNW 13.8 mph 31.1 mph N/A   Clear
9:53 AM 12.0 °F -6.5 °F -6.0 °F 44% 29.98 in 10.0 mi WNW 20.7 mph 32.2 mph N/A   Clear
10:53 AM 12.9 °F -3.9 °F -6.0 °F 43% 29.99 in 10.0 mi WNW 17.3 mph 27.6 mph N/A   Clear
11:53 AM 14.0 °F 2.0 °F -6.0 °F 41% 29.99 in 10.0 mi West 9.2 mph 23.0 mph N/A   Clear
12:53 PM 14.0 °F 0.5 °F -7.1 °F 39% 29.99 in 10.0 mi West 11.5 mph 21.9 mph N/A   Clear
1:53 PM 14.0 °F -0.2 °F -8.0 °F 37% 30.01 in 10.0 mi West 12.7 mph 18.4 mph N/A   Clear
2:53 PM 14.0 °F 1.2 °F -8.0 °F 37% 30.03 in 10.0 mi WNW 10.4 mph 21.9 mph N/A   Clear
3:53 PM 12.0 °F -4.0 °F -9.0 °F 39% 30.08 in 10.0 mi WNW 15.0 mph 23.0 mph N/A   Clear
4:53 PM 10.0 °F -5.2 °F -9.9 °F 40% 30.10 in 10.0 mi WNW 12.7 mph 23.0 mph N/A   Clear
5:53 PM 10.0 °F -5.2 °F -11.0 °F 38% 30.15 in 10.0 mi West 12.7 mph 18.4 mph N/A   Clear
6:53 PM 9.0 °F -2.2 °F -11.0 °F 40% 30.18 in 10.0 mi West 6.9 mph 21.9 mph N/A   Clear
7:53 PM 9.0 °F -5.9 °F -11.0 °F 40% 30.20 in 10.0 mi West 11.5 mph 18.4 mph N/A   Clear
8:53 PM 8.1 °F -2.0 °F -9.0 °F 46% 30.24 in 10.0 mi West 5.8 mph - N/A   Clear
9:53 PM 8.1 °F -2.0 °F -9.0 °F 46% 30.26 in 10.0 mi West 5.8 mph 17.3 mph N/A   Clear
10:53 PM 8.1 °F -2.0 °F -9.9 °F 44% 30.28 in 10.0 mi West 5.8 mph - N/A   Clear
11:53 PM 7.0 °F -4.5 °F -9.0 °F 48% 30.30 in 10.0 mi Variable 6.9 mph - N/A   Clear